Погода в Иэме

Погода в Иэме : погода сейчас, прогноз погоды и архив. Всё, что Вы хотите узнать о погоде в Иэме!

Поиск расширенной информации на нашем сайте:

Другие новости

Новости СМИ2

Главная страница сайта

Новости сайта

03.07.2017

Напоминаем, что на нашем специализированном сайте Метеоцентр.Азия вы можете получить высокодетализированные автоматические прогнозы погоды по пунктам России, СНГ и мира в авиационном формате (включающие направление и скорость ветра, видимость, явления погоды, количество и форму облачности, нижнюю и верхнюю границу облачности).


Погода в Иэме - сегодня

Время (UTC), дата Ветер
(°,м/с) 
Видим.   Явления Облачность Т
(°С)
Тd
(°С)
f(%) Тe
(°С)
Pmin
(гПа)
dP
(гПа)
Po
(мм)
O2
(г/м3)
Тmin Tmax R s Состояние
почвы
18 15.04.18 тихо ()   20000 м    ясно 
-20.9 -22.8 85 -21  1009.5  -0.9  692  303           
21 15.04.18 тихо ()   20000 м    ясно 
-22 -23.3 89 -22  1008.8  -0.4  691  304  -26      31  равномерный
сухой снег
100% 
00 16.04.18 330 (СЗ) 20000 м    ясно 
-17.9 -21.3 75 -18  1007.3  -0.7  691  299           
03 16.04.18 тихо ()   20000 м    3/0 средняя 
[Ac As]
-7.3 -13.2 63 -7  1002.3  -1.3  690  287           
06 16.04.18 тихо ()   20000 м    3/0 средняя 
[Ac trans]
-2.4 -11.7 49 -2  999.1  -1.5  689  281           
12 16.04.18 090 (В) 20000 м    10/0 средняя 
[Ac und]
-5.7 -10.4 69 -5  999.5  -0.3  688  284           
15 16.04.18 тихо ()   20000 м    10/0 средняя 
[Ac und]
-6.4 -10.5 73 -6  998.9  -0.8  688  285           
18 16.04.18 тихо ()   20000 м    10/0 средняя 
[Ac und]
-8 -10.7 81 -8  998.7  -0.6  687  286           
00 17.04.18 тихо ()   20000 м    6/0 верхняя 
[Cs]
-7.7 -11.2 76 -8  997.9  -0.5  687  286           
03 17.04.18 330 (СЗ) 20000 м    8/0 верхняя 
[Cs]
-1.2 -8.7 57 -3  995.5  -0.3  686  279           
06 17.04.18 340 (С) 20000 м    8/0 верхняя 
[Cs]
-2.1 -8.8 60 -5  995.6  -0.2  686  279           
12 17.04.18 340 (С) 20000 м    6/0 верхняя 
[Cs]
-7.9 -13 67 -8  999.6  1.1  688  286           
15 17.04.18 тихо ()   20000 м    3/0 верхняя 
[Cs]
-15.1 -17.1 85 -15  1003.1  689  295           
18 17.04.18 тихо ()   20000 м    4/0 верхняя 
[Cs]
-19.6 -20.2 95 -20  1005.8  689  301           
21 17.04.18 тихо ()   20000 м    9/0 средняя, верхняя 
[Ac und|Cs]
-17 -18.9 85 -17  1006.2  1.2  690  298  -20.6      29  равномерный
сухой снег
100% 
00 18.04.18 тихо ()   20000 м    3/0 верхняя 
[Cs]
-11 -13.8 80 -11  1004.9  0.7  691  291           
03 18.04.18 150 (ЮВ) 20000 м    6/0 средняя, верхняя 
[Ac cast|Cs]
-3.9 -10.1 62 -3  1003.4  0.7  691  283           
06 18.04.18 200 (Ю) 20000 м    10/0 средняя, верхняя 
[Ac cast|Cs]
-3.2 -11.5 53 -3  1003.8  0.6  692  283           
12 18.04.18 тихо ()   20000 м    9/0 верхняя 
[Cs]
-10.6 -15.9 65 -11  1007.8  1.1  693  292           
15 18.04.18 тихо ()   20000 м  в посл. час снег  10/0 средняя 
[As op]
-12.9 -15.6 80 -13  1009.5  0.8  693  294           
18 18.04.18 //0 (С) //  20000 м  слаб. снег  н/о 
[As op|Cs]
-15.2 -16.5 90 -15  1011.1  0.8  694  297           
21 18.04.18 тихо ()   20000 м    4/0 верхняя 
[Cs]
-19.1 -19.7 95 -19  1013.5  0.9  695  302  -22.8    0.3  28  равномерный
сухой снег
100% 
00 19.04.18 тихо ()   20000 м    3/0 верхняя 
[Cs]
-8.8 -10.8 85 -9  1009.8  -0.1  695  290           
03 19.04.18 тихо ()   20000 м    3/0 верхняя 
[Cs]
-2.7 -10.6 54 -3  1007.4  -0.4  694  283           
06 19.04.18 140 (ЮВ) 20000 м    3/0 верхняя 
[Ci fib]
-2 -9.1 58 -4  1007  -0.2  694  283           
Время (UTC), дата Ветер
(°,м/с) 
Видим.   Явления Облачность Т
(°С)
Тd
(°С)
f(%) Тe
(°С)
Pmin
(гПа)
dP
(гПа)
Po
(мм)
O2
(г/м3)
Тmin Tmax R s Состояние
почвы

Для получения пояснительной информации подведите курсор к названию столбца.

ПОГОДА в Иэме - архив

Всё, что Вы хотите узнать о погоде в Иэме - удобно и подробно!

Выберите нужную дату (начиная с 1 января 2015* года) и нажмите кнопку "Найти".
Будут отображены архивные сводки погоды по пункту Иэма, начиная с указанной даты.


Отображать данные в формате CSV (для использования в таблицах Excel)


Внимание! Наш архив погоды предназначен исключительно для личного некоммерческого использования в познавательных целях. Если Вам необходимы официальные справки о состоянии погоды (для производственных, юридических, коммерческих и т.п. целей), обращайтесь в органы Росгидромета.

*Примечание: данная дата относится к архиву по метеостанциям СССР (Россия, СНГ, Балтия).
Архив по метеостанциям Зарубежной Европы и Азии (кроме Китая) хранится 10 дней, по другим регионам земного шара (Китай, Африка, Америка, Австралия, Океания) - 1 день.

Иэма - район местоположения метеостанции


Название, широта, долгота, высота метеостанции:
Иэма 65.2°ш. 135.9°д. 676 м над ур. моря [Российская Федерация]

Дополнительная информация

В oтличие oт бoльшинства пoгoдных сайтoв мы публикуем пoдрoбную метеoинфoрмацию в детальнoм прoфессиoнальнoм фoрмате.

Характеристики температуры и влажнoсти вoздуха измеряются на высoте 2 м в тени вдали oт зданий и деревьев.
Скoрoсть ветра измеряется на высoте 10 м (на урoвне рoста челoвека скoрoсть ветра ниже в 1.5-2 раза). Если метеoстанция нахoдится в гoрoде или в лесу, тo скoрoсть ветра занижена на 2-4 м/с пo сравнению с oткрытым местoм. Скoрoсть ветра над акватoриями крупных рек и oзёр, а также на вершинах хoлмoв на 2-5 м/с выше, чем в oбычных услoвиях.
Атмoсфернoе давление в разных тoчках местнoсти мoжет значительнo oтличаться oт давления на метеoстанции, в зависимoсти oт услoвий рельефа (при пoдъёме на 10 м давление пoнижается примернo на 1 мм рт.ст.).